IRIS (39197 NORAD) Tracking and Keplerian Element Data

This shows tracking and keplerian element data for the satellite.

Feedback or suggestion? Click here.




ElementValue
Catalog39197
NameIRIS
Epoch Orbit29088
Epoch Day322.92344373
Epoch Year2018
RAAN141.9931
Inclination97.941
Eccentricity0.0026537
Argument of Perigee295.5651
Mean Anonmoly64.2817
Mean Motion14.78578861
Decay Rate1.09E-06
L11 39197U 13033A 18322.92344373 .00000109 00000-0 22069-4 0 9993
L22 39197 97.9410 141.9931 0026537 295.5651 64.2817 14.78578861290885

Live tracking and technical data element details for IRIS (NORAD 39197). IRIS can be tracked NOW for your location showing map with azimuth and elevation plus other details from your city location.

Track the satellite on the map from your city or location and see movement details for azimuth, elevation, latitude, longitude, range, height, and movement on the map or in text.







IsCatalogInMostPopularTable: catalog: 39197, numindb: 87
Update: records affected: 1



GetName: 39197 IRIS

Hit Count: updated at: Mon, 19 Nov 2018 23:36:10 GMT